Flag for Canada Weather past 2 weeks in Yarmouth County, Nova Scotia, Canada

Now
55 °F

Sprinkles. Fog.


Feels Like: 51 °F
Forecast: 56 / 62 °F
Wind: 21 mph from East

Location: Yarmouth

Current Time: Oct 23, 2014 at 2:57:08 AM

Latest Report: Oct 23, 2014 at 2:00 AM


Visibility: 6 mi

Pressure: 29.93 "Hg

Humidity: 94%

Dew point: 54 °F

Location of Yarmouth CountyLocation

Historic Weather in Yarmouth County — Graph

°F

Yarmouth County temperature yesterday

Maximum temperature yesterday: 57 °F (at 11:00 PM)
Minimum temperature yesterday: 52 °F (at 2:00 AM)
Average temperature yesterday: 54 °F

Past Weeks' High & Low Weather Summary

 TemperatureHumidityPressure
High70 °F (Oct 16, 11:00 AM)100% (Oct 8, 1:00 AM)30.37 "Hg (Oct 8, 1:00 AM)
Low39 °F (Oct 13, 8:00 AM)55% (Oct 9, 3:00 PM)29.51 "Hg (Oct 19, 2:00 AM)
Average56 °F86%29.99 "Hg
* Reported Oct 8 1:00 AM — Oct 23 1:04 AM, Yarmouth County, Weather by CustomWeather, © 2014

Note: Actual official high and low records may vary slightly from our data, if they occured in-between our weather recording intervals... More about our weather records

Advertising

Yarmouth County weather history for previous 24 hours

 ConditionsComfort  
Time TempWeatherWind HumidityBarometerVisibility
1:04 AM
Oct 23
55 °FRain showers. Fog.21 mph100%29.95 "Hg4 mi
12:00 AM57 °FSprinkles. Fog.21 mph94%29.98 "Hg6 mi
11:00 PM
Oct 22
57 °FSprinkles. Fog.18 mph94%29.99 "Hg6 mi
10:00 PM55 °FSprinkles. Fog.20 mph94%29.99 "Hg4 mi
9:46 PM55 °FLots of rain. Fog.17 mph94%29.99 "Hg3 mi
9:00 PM54 °FSprinkles. Fog.22 mph100%29.99 "Hg5 mi
8:00 PM54 °FLots of rain. Fog.18 mph100%30.01 "Hg3 mi
7:00 PM54 °FSprinkles. Fog.18 mph100%30.02 "Hg5 mi
6:00 PM55 °FLight rain. Fog.20 mph94%30.02 "Hg2 mi
5:00 PM55 °FLight rain. Fog.17 mph100%30.00 "Hg2 mi
4:00 PM55 °FLight rain. Fog.18 mph100%30.01 "Hg3 mi
3:00 PM55 °FLight rain. Fog.18 mph100%30.01 "Hg3 mi
2:00 PM54 °FRain. Fog.15 mph100%30.03 "Hg2 mi
1:45 PM54 °FRain showers. Fog.14 mph100%30.03 "Hg1 mi
1:00 PM54 °FRain showers. Fog.20 mph100%30.03 "Hg1 mi
12:52 PM54 °FRain showers. Fog.25 mph100%30.03 "Hg2 mi
12:00 PM54 °FSprinkles. Fog.17 mph100%30.06 "Hg3 mi
11:00 AM54 °FSprinkles. Fog.23 mph94%30.04 "Hg3 mi
10:00 AM54 °FSprinkles. Fog.23 mph100%30.05 "Hg3 mi
9:00 AM54 °FSprinkles. Fog.21 mph94%30.08 "Hg5 mi
8:00 AM54 °FSprinkles. Fog.17 mph94%30.08 "Hg5 mi
7:00 AM54 °FMostly cloudy.18 mph94%30.08 "Hg9 mi
6:00 AM52 °FMostly cloudy.18 mph100%30.08 "Hg9 mi
5:00 AM52 °FSprinkles. Low clouds.17 mph100%30.08 "Hg9 mi
4:00 AM54 °FSprinkles. Overcast.17 mph94%30.10 "Hg9 mi
3:00 AM52 °FSprinkles. Low clouds.15 mph100%30.11 "Hg9 mi
2:00 AM52 °FSprinkles. Overcast.13 mph94%30.14 "Hg9 mi
Weather by CustomWeather, © 2014

See weather overviewHow to use our weather pages